TimeCST,TemperatureF,Dew PointF,Humidity,Sea Level PressureIn,VisibilityMPH,Wind Direction,Wind SpeedMPH,Gust SpeedMPH,PrecipitationIn,Events,Conditions,WindDirDegrees,DateUTC
12:53 AM,33.1,30.0,89,30.13,3.0,Calm,Calm,-,N/A,,Scattered Clouds,0,2012-11-09 06:53:00
1:14 AM,32.0,30.2,93,30.11,2.5,Calm,Calm,-,N/A,,Partly Cloudy,0,2012-11-09 07:14:00
1:24 AM,32.0,30.2,93,30.11,1.8,Calm,Calm,-,N/A,,Clear,0,2012-11-09 07:24:00
1:33 AM,32.0,30.2,93,30.10,2.5,Calm,Calm,-,N/A,,Clear,0,2012-11-09 07:33:00
1:40 AM,32.0,28.4,87,30.10,3.0,Calm,Calm,-,N/A,,Clear,0,2012-11-09 07:40:00
1:53 AM,33.1,30.0,89,30.12,4.0,SE,4.6,-,N/A,,Clear,130,2012-11-09 07:53:00
2:53 AM,36.0,32.0,86,30.10,4.0,SE,4.6,-,N/A,,Clear,140,2012-11-09 08:53:00
3:53 AM,33.1,30.0,89,30.10,3.0,Calm,Calm,-,N/A,,Clear,0,2012-11-09 09:53:00
4:53 AM,35.1,32.0,89,30.10,4.0,SE,3.5,-,N/A,,Clear,140,2012-11-09 10:53:00
5:43 AM,33.8,30.2,87,30.08,2.5,Calm,Calm,-,N/A,,Clear,0,2012-11-09 11:43:00
5:53 AM,35.1,32.0,89,30.10,2.5,Calm,Calm,-,N/A,,Clear,0,2012-11-09 11:53:00
6:04 AM,35.6,33.8,93,30.08,3.0,SSE,3.5,-,N/A,,Clear,160,2012-11-09 12:04:00
6:36 AM,33.8,30.2,87,30.08,1.8,ESE,4.6,-,N/A,,Overcast,120,2012-11-09 12:36:00
6:48 AM,35.6,32.0,87,30.07,2.0,ESE,4.6,-,N/A,,Overcast,120,2012-11-09 12:48:00
6:53 AM,37.0,34.0,89,30.10,3.0,SE,5.8,-,N/A,,Overcast,130,2012-11-09 12:53:00
7:53 AM,39.9,36.0,86,30.11,3.0,South,6.9,-,N/A,,Overcast,180,2012-11-09 13:53:00
8:53 AM,42.1,37.0,82,30.10,3.0,South,6.9,-,N/A,,Haze,190,2012-11-09 14:53:00
9:53 AM,43.0,37.0,80,30.09,4.0,SSE,3.5,-,N/A,,Haze,150,2012-11-09 15:53:00
10:53 AM,46.9,39.0,74,30.08,5.0,Calm,Calm,-,N/A,,Haze,0,2012-11-09 16:53:00
11:53 AM,48.9,39.0,69,30.06,5.0,Calm,Calm,-,N/A,,Haze,0,2012-11-09 17:53:00
12:53 PM,48.9,39.0,69,30.04,4.0,SSE,4.6,-,N/A,,Haze,150,2012-11-09 18:53:00
1:53 PM,48.9,39.0,69,30.03,4.0,ESE,5.8,-,N/A,,Haze,110,2012-11-09 19:53:00
2:53 PM,48.9,39.0,69,30.02,4.0,East,6.9,-,N/A,,Haze,90,2012-11-09 20:53:00
3:53 PM,46.9,39.0,74,30.02,4.0,East,6.9,-,0.54,,Haze,100,2012-11-09 21:53:00
4:53 PM,46.0,39.9,79,30.02,5.0,East,3.5,-,N/A,,Haze,100,2012-11-09 22:53:00
5:53 PM,48.0,42.1,80,30.04,5.0,NNE,3.5,-,N/A,,Haze,30,2012-11-09 23:53:00
6:53 PM,48.0,43.0,83,30.03,4.0,ENE,4.6,-,0.00,,Haze,70,2012-11-10 00:53:00
7:53 PM,48.9,44.1,83,30.04,4.0,NE,5.8,-,N/A,,Haze,50,2012-11-10 01:53:00
8:53 PM,50.0,45.0,83,30.04,4.0,ENE,9.2,-,N/A,,Haze,60,2012-11-10 02:53:00
9:53 PM,48.9,44.1,83,30.03,4.0,ENE,8.1,-,N/A,,Haze,60,2012-11-10 03:53:00
10:53 PM,50.0,43.0,77,30.03,5.0,NE,6.9,-,N/A,,Haze,50,2012-11-10 04:53:00
11:53 PM,50.0,44.1,80,30.02,4.0,NE,6.9,-,N/A,,Haze,40,2012-11-10 05:53:00